Regional Weather Roundup
Issued by NWS

Home | Current Version | Previous Version | Graphics & Text | Print | Product List | Glossary On
Versions: 1 2 3 4 5 6 7 8 9 10 11 12 13 14 15 16 17 18 19 20 21 22 23 24 25 26 27 28 29 30 31 32 33 34 35 36 37 38 39 40 41 42 43 44 45 46 47 48 49 50
000
ASUS45 KPSR 280700
RWRAZ

PRELIMINARY ARIZONA REGIONAL HOURLY WEATHER ROUNDUP
NATIONAL WEATHER SERVICE PHOENIX AZ
1200 AM MST SUN DEC 28 2014

NOTE: FAIR INDICATES FEW OR NO CLOUDS BELOW 12,000 FEET WITH NO
SIGNIFICANT WEATHER AND/OR OBSTRUCTIONS TO VISIBILITY.

AZZ001>003-036-280800-
NORTHWEST ARIZONA

CITY           SKY/WX    TMP DP  RH WIND       PRES   REMARKS
KINGMAN        CLEAR     22  11  62 SE8       30.32S WCI  12
$$

AZZ004>008-015-016-018-280800-
NORTH CENTRAL ARIZONA

CITY           SKY/WX    TMP DP  RH WIND       PRES   REMARKS
GRAND CANYON   CLEAR      9   5  84 CALM      30.25F
PRESCOTT       CLEAR     22  10  60 S9        30.28F WCI  12
FLAGSTAFF      NOT AVBL
PAYSON         CLEAR     28  10  47 E3        30.29F
PAGE           CLEAR     29   8  41 SW5       30.28F WCI  24
$$

AZZ009>014-017-280800-
NORTHEAST ARIZONA

CITY           SKY/WX    TMP DP  RH WIND       PRES   REMARKS
WINSLOW        NOT AVBL
SAINT JOHNS    CLEAR     19  11  70 S3        30.27F
WINDOW ROCK    CLEAR      4  -2  76 CALM      30.24F
$$

AZZ023-280800-
GREATER PHOENIX AREA

CITY           SKY/WX    TMP DP  RH WIND       PRES   REMARKS
PHOENIX        CLEAR     44  21  40 W6        30.29S
LUKE AFB       CLEAR     46  17  31 N10       30.29F
DEER VALLEY    CLEAR     42  20  41 NE7       30.29F
SCOTTSDALE     CLEAR     39  23  52 CALM      30.30F
MESA-GATEWAY   CLEAR     34  23  64 SE3       30.31F
$$

AZZ027-028-280800-
SOUTHWEST MARICOPA COUNTY AND PINAL COUNTY

CITY           SKY/WX    TMP DP  RH WIND       PRES   REMARKS
CASA GRANDE    CLEAR     36  19  51 CALM      30.30S
$$

AZZ503-504-507>509-280800-
SOUTHEAST ARIZONA

CITY           SKY/WX    TMP DP  RH WIND       PRES   REMARKS
TUCSON         CLEAR     32  28  85 CALM      30.30S
DAVIS-MONTHAN  CLEAR     32  27  79 SE6       30.27S WCI  27
NOGALES        CLEAR     31  16  54 E3        30.25R
SIERRA VISTA   CLEAR     29  14  53 CALM      30.25S
DOUGLAS        CLEAR     21  18  88 NW6       30.27S WCI  13
SAFFORD        CLEAR     30  19  63 CALM      30.28S
$$

AZZ020-021-025-026-031-280800-
SOUTHWEST ARIZONA

CITY           SKY/WX    TMP DP  RH WIND       PRES   REMARKS
YUMA           CLEAR    N/A  20 N/A CALM      30.32F
$$

CAZ031-033-041-043-047-048-061-280800-
SOUTHERN CALIFORNIA

CITY           SKY/WX    TMP DP  RH WIND       PRES   REMARKS
DOWNTOWN L.A.  CLEAR     48  29  47 CALM      30.32F
L.A. AIRPORT   PTCLDY    50  25  37 VRB7      30.32F
SAN DIEGO      PTCLDY    52  25  35 E3        30.32S
BURBANK        CLEAR     44  26  49 CALM      30.30F
ONTARIO        PTCLDY    42  24  49 CALM      30.32S
RIVERSIDE      CLEAR     43  19  38 E3        30.33R
PALM SPRINGS   PTCLDY    47  16  29 NW6       30.36F
EL CENTRO NAS  CLEAR     38  13  35 W9        30.34F WCI  31
IMPERIAL       CLEAR     38  17  42 SW7       30.34F WCI  33
BLYTHE         CLEAR     43  15  32 NW5       30.34F
NEEDLES        CLEAR     39  10  30 W8        30.36S WCI  33
$$

NVZ020-UTZ003-280800-
SOUTHERN NEVADA-UTAH

CITY           SKY/WX    TMP DP  RH WIND       PRES   REMARKS
LAS VEGAS      NOT AVBL
SALT LAKE CITY CLOUDY    25  16  68 SE7       30.22F WCI  17
$$

NMZ009-TXZ055-280800-
NEW MEXICO-WEST TEXAS

CITY           SKY/WX    TMP DP  RH WIND       PRES   REMARKS
ALBUQUERQUE    CLEAR     24   9  52 N7        30.26F WCI  16
EL PASO        CLEAR     33  30  88 S5        30.28S WCI  29
$$


........................KEY........................
SKY/WX - SKY CONDITION/WEATHER
TMP    - TEMPERATURE IN FAHRENHEIT
DP     - DEW POINT IN FAHRENHEIT
RH     - RELATIVE HUMIDITY IN PERCENT
WIND   - DIRECTION AND SPEED IN MILES PER HOUR (MPH)
VRB    - VARIABLE WIND DIRECTION
PRES   - MEAN SEA LEVEL PRESSURE IN INCHES OF MERCURY
         F - FALLING PRESSURE   R - RISING PRESSURE
         S - STEADY PRESSURE
VSB    - VISIBILITY IN MILES
HX     - HEAT INDEX IN FAHRENHEIT
WCI    - WIND CHILL INDEX IN FAHRENHEIT
TC     - TEMPERATURE IN CELSIUS WHICH IS ALSO KNOWN AS
         TEMPERATURE IN CENTIGRADE
AFB    - AIR FORCE BASE
         LUKE AFB IS LUKE AIR FORCE BASE
         DAVIS-MONTHAN IS DAVIS-MONTHAN AIR FORCE BASE
NAS    - NAVAL AIR STATION
         EL CENTRO NAS IS EL CENTRO NAVAL AIR STATION
N/A    - NOT AVAILABLE


USA.gov is the U.S. government's official web portal to all federal, state and local government web resources and services.